Miscellaneous Local Product
Issued by NWS Hastings, NE

Home | Current Version | Previous Version | Graphics & Text | Print | Product List | Glossary On
Versions: 1 2 3 4 5 6 7 8 9 10 11 12 13 14 15 16 17 18 19 20 21 22 23 24 25 26 27 28 29 30 31 32 33 34 35 36 37 38 39 40 41 42 43 44 45 46 47 48 49 50
056
AXUS43 KGID 210502
MISGRI

GID CWA HOURLY WEATHER ROUNDUP
NATIONAL WEATHER SERVICE HASTINGS NE
1100 PM CST MON FEB 20 2017

NOTE: "FAIR" INDICATES FEW OR NO CLOUDS BELOW 12,000 FEET WITH NO
SIGNIFICANT WEATHER AND/OR OBSTRUCTIONS TO VISIBILITY.

...SOUTH CENTRAL NEBRASKA...

CITY           SKY/WX    TMP DP  RH WIND       PRES   REMARKS
GRAND ISLAND   CLEAR     39  34  82 SW5       29.97S
HASTINGS       CLEAR     40  32  73 SW5       29.98S
KEARNEY        CLEAR     41  30  65 CALM      29.97F
ORD            CLEAR     33  27  78 S3        29.93F
YORK           CLEAR     36  34  93 CALM      29.97R
AURORA         CLEAR     34  32  92 SW5       29.97S WCI  30
LEXINGTON      CLEAR     34  27  77 CALM      29.96F
HOLDREGE       CLEAR     32  26  79 SE8       29.96F WCI  25
HEBRON         CLEAR     40  35  84 CALM      29.97S

...NEBRASKA PANHANDLE...

CITY           SKY/WX    TMP DP  RH WIND       PRES   REMARKS
CHADRON        CLOUDY    50  29  44 S3        29.88R
ALLIANCE       PTCLDY    38  28  67 SW9       29.92S WCI  31
SCOTTSBLUFF    PTCLDY    44  23  43 SW5       29.93S
SIDNEY         CLEAR     31  19  61 SW10      29.97F WCI  22

...WESTERN AND NORTH CENTRAL NEBRASKA...

CITY           SKY/WX    TMP DP  RH WIND       PRES   REMARKS
VALENTINE      CLEAR     41  25  53 SW12      29.87F
AINSWORTH      CLEAR     38  31  76 S9        29.90S WCI  31
ONEILL         CLEAR     38  30  74 S6        29.91S WCI  33
BROKEN BOW     CLEAR     29  25  85 N3        29.94F
IMPERIAL       CLEAR     40  16  37 SW5       29.98F
NORTH PLATTE   CLEAR     35  24  64 CALM      29.96S
MCCOOK         CLEAR     35  23  61 W3        29.99S

...EASTERN NEBRASKA...

CITY           SKY/WX    TMP DP  RH WIND       PRES   REMARKS
NORFOLK        CLEAR     33  31  92 CALM      29.93S
SO SIOUX CITY  CLEAR     40  38  93 CALM      29.94R
TEKAMAH        CLEAR     39  36  89 W8        29.93F WCI  33
COLUMBUS       CLEAR     34  30  86 CALM      29.95F
ALBION         CLEAR     35  32  88 CALM      29.95S
OMAHA EPPLEY   CLEAR     43  38  82 CALM      29.94S
MILLARD        CLEAR     42  41  95 CALM      29.95S
LINCOLN        CLEAR     37  35  92 N6        29.96F WCI  32
NEBRASKA CITY  CLEAR     47  40  74 N8        29.95S
BEATRICE       CLEAR     37  36  94 CALM      29.97R
FALLS CITY     CLOUDY    50  45  83 NW9       29.93S

...NORTHERN KANSAS...

CITY           SKY/WX    TMP DP  RH WIND       PRES   REMARKS
GOODLAND       CLOUDY    45  15  30 S10       30.01F
HILL CITY      CLEAR     36  27  69 W6        30.02R WCI  31
NORTON         CLEAR     36  19  51 SW10      29.99S WCI  28
SMITH CENTER   CLEAR     37  30  75 NW5       29.99S WCI  34
HAYS           CLEAR     41  31  67 NW8       30.01R
RUSSELL        CLEAR     39  32  76 CALM      29.98R
CONCORDIA      CLEAR     46  38  73 CALM      29.97S
SALINA         CLEAR     47  38  71 N5        29.98R
TOPEKA         PTCLDY    54  49  83 NW6       29.92F



USA.gov is the U.S. government's official web portal to all federal, state and local government web resources and services.